TimeAKDT,TemperatureF,Dew PointF,Humidity,Sea Level PressureIn,VisibilityMPH,Wind Direction,Wind SpeedMPH,Gust SpeedMPH,PrecipitationIn,Events,Conditions,WindDirDegrees,DateUTC
12:53 AM,36.0,25.0,64,30.24,10.0,WNW,9.2,-,N/A,,Mostly Cloudy,300,2012-10-24 08:53:00
1:53 AM,37.0,26.1,65,30.24,10.0,WNW,8.1,-,N/A,,Overcast,300,2012-10-24 09:53:00
2:53 AM,37.0,25.0,62,30.25,10.0,WNW,9.2,-,N/A,,Overcast,300,2012-10-24 10:53:00
3:53 AM,36.0,25.0,64,30.24,10.0,NW,8.1,-,N/A,,Overcast,320,2012-10-24 11:53:00
4:53 AM,36.0,25.0,64,30.25,10.0,NW,8.1,-,N/A,,Overcast,310,2012-10-24 12:53:00
5:53 AM,36.0,25.0,64,30.25,10.0,NW,6.9,-,N/A,,Overcast,310,2012-10-24 13:53:00
6:53 AM,36.0,25.0,64,30.25,10.0,NW,5.8,-,N/A,,Overcast,320,2012-10-24 14:53:00
7:53 AM,36.0,25.0,64,30.25,10.0,WNW,4.6,-,N/A,,Overcast,300,2012-10-24 15:53:00
8:53 AM,35.1,25.0,67,30.25,10.0,NW,8.1,-,N/A,,Scattered Clouds,310,2012-10-24 16:53:00
9:53 AM,34.0,25.0,70,30.25,10.0,NW,5.8,-,N/A,,Scattered Clouds,320,2012-10-24 17:53:00
10:53 AM,37.0,25.0,62,30.26,10.0,NW,6.9,-,N/A,,Scattered Clouds,310,2012-10-24 18:53:00
11:53 AM,41.0,26.1,55,30.26,10.0,WNW,4.6,-,N/A,,Scattered Clouds,300,2012-10-24 19:53:00
12:53 PM,42.1,24.1,49,30.27,10.0,West,8.1,-,N/A,,Partly Cloudy,260,2012-10-24 20:53:00
1:53 PM,43.0,24.1,47,30.27,10.0,West,8.1,-,N/A,,Partly Cloudy,280,2012-10-24 21:53:00
2:53 PM,43.0,21.9,43,30.27,10.0,West,9.2,-,N/A,,Partly Cloudy,270,2012-10-24 22:53:00
3:53 PM,43.0,23.0,45,30.26,10.0,West,8.1,-,N/A,,Clear,280,2012-10-24 23:53:00
4:53 PM,42.1,23.0,47,30.27,10.0,West,6.9,-,N/A,,Partly Cloudy,280,2012-10-25 00:53:00
5:53 PM,37.9,23.0,55,30.27,10.0,Calm,Calm,-,N/A,,Scattered Clouds,0,2012-10-25 01:53:00
6:53 PM,34.0,23.0,64,30.29,10.0,West,4.6,-,N/A,,Scattered Clouds,260,2012-10-25 02:53:00
7:53 PM,30.9,23.0,72,30.30,10.0,WNW,5.8,-,N/A,,Scattered Clouds,290,2012-10-25 03:53:00
8:53 PM,30.9,24.1,76,30.32,10.0,West,5.8,-,N/A,,Mostly Cloudy,280,2012-10-25 04:53:00
9:53 PM,33.1,25.0,72,30.34,10.0,West,6.9,-,N/A,,Mostly Cloudy,270,2012-10-25 05:53:00
10:53 PM,34.0,26.1,73,30.34,10.0,West,5.8,-,N/A,,Mostly Cloudy,270,2012-10-25 06:53:00
11:53 PM,35.1,26.1,70,30.34,10.0,WNW,5.8,-,N/A,,Overcast,290,2012-10-25 07:53:00